Location: Home
(42.5358°N, 72.7383°W)
Time: 01:35:34
(UTC-05:00)

AAUSAT CUBESAT 2 - Visible Passes

Search period start: 27 January 2022 00:00
Search period end: 06 February 2022 00:00
Orbit: 571 x 585 km, 97.5° (Epoch: 26 January)

Date Brightness Start Highest point End Pass type
(mag) Time Alt. Az. Time Alt. Az. Time Alt. Az.
27 Jan ? 04:43:17 10° NNE 04:47:22 58° E 04:48:02 50° SE visible
27 Jan ? 06:20:16 10° NW 06:22:11 13° WNW 06:24:06 10° W visible
28 Jan ? 04:47:45 10° NNE 04:51:52 66° ESE 04:52:52 47° SSE visible
28 Jan ? 06:25:09 10° NW 06:26:37 12° WNW 06:28:05 10° W visible
29 Jan ? 04:52:13 10° NNE 04:56:22 75° ESE 04:57:43 41° S visible
29 Jan ? 06:30:17 10° NW 06:31:03 10° WNW 06:31:49 10° WNW visible
30 Jan ? 04:56:42 10° NNE 05:00:50 84° E 05:02:35 34° S visible
31 Jan ? 05:01:10 10° NNE 05:05:19 86° W 05:07:28 28° SSW visible
31 Jan ? 17:28:57 10° WSW 17:30:06 11° W 17:31:15 10° WNW visible
01 Feb ? 05:05:40 10° N 05:09:47 76° WNW 05:12:21 22° SSW visible
02 Feb ? 05:10:09 10° N 05:14:14 67° WNW 05:17:17 17° SSW visible
03 Feb ? 03:41:40 10° ENE 03:43:00 11° E 03:44:19 10° ESE visible
03 Feb ? 05:14:38 10° N 05:18:41 59° WNW 05:22:15 13° SSW visible
04 Feb ? 03:45:38 10° ENE 03:47:30 13° E 03:49:22 10° ESE visible
04 Feb ? 05:19:07 10° N 05:23:08 52° WNW 05:27:06 10° SSW visible
05 Feb ? 03:49:44 10° ENE 03:51:59 14° E 03:54:15 10° SE visible
05 Feb ? 05:23:37 10° N 05:27:34 46° WNW 05:31:28 10° SW visible
